Flag for Australia Weather past 2 weeks in Townsville, Queensland, Australia

Now
70 °F

Clear.


Feels Like: 70 °F
Forecast: 59 / 81 °F
Wind: 5 mph from North

Location: Townsville Amo

Current Time: Sep 16, 2014 at 11:32:44 PM

Latest Report: Sep 16, 2014 at 11:00 PM


Visibility: N/A

Pressure: 30.04 "Hg

Humidity: 78%

Dew point: 63 °F

Location of TownsvilleLocation

Historic Weather in Townsville — Graph

°F

Townsville temperature yesterday

Maximum temperature yesterday: 81 °F (at 11:30 AM)
Minimum temperature yesterday: 61 °F (at 6:00 AM)
Average temperature yesterday: 72 °F

Past Weeks' High & Low Weather Summary

 TemperatureHumidityPressure
High82 °F (Sep 3, 1:30 PM)100% (Sep 3, 2:30 AM)30.15 "Hg (Sep 3, 2:30 AM)
Low54 °F (Sep 4, 5:30 AM)11% (Sep 3, 3:00 PM)29.89 "Hg (Sep 3, 3:00 PM)
Average71 °F69%30.02 "Hg
* Reported Sep 1 10:00 PM — Sep 16 10:00 PM, Townsville, Weather by CustomWeather, © 2014

Note: Actual official high and low records may vary slightly from our data, if they occured in-between our weather recording intervals... More about our weather records

Advertising

Townsville weather history for previous 24 hours

 ConditionsComfort  
Time TempWeatherWind HumidityBarometerVisibility
10:00 PM
Sep 16
72 °FPassing clouds.No wind78%30.01 "HgN/A
9:30 PM70 °FPassing clouds.5 mph83%30.01 "HgN/A
9:00 PM72 °FPassing clouds.8 mph78%30.01 "HgN/A
8:30 PM72 °FPassing clouds.7 mph78%30.01 "HgN/A
8:00 PM72 °FClear.7 mph78%30.01 "HgN/A
7:30 PM72 °FClear.9 mph78%29.98 "HgN/A
7:00 PM72 °FClear.10 mph78%29.98 "HgN/A
6:30 PM72 °FClear.12 mph83%29.95 "HgN/A
6:00 PM73 °FSunny.14 mph74%29.95 "HgN/A
5:30 PM75 °FPassing clouds.15 mph69%29.95 "HgN/A
5:00 PM75 °FPassing clouds.16 mph69%29.92 "HgN/A
4:30 PM77 °FPassing clouds.15 mph65%29.92 "HgN/A
4:00 PM77 °FPassing clouds.14 mph65%29.92 "HgN/A
3:30 PM77 °FPassing clouds.17 mph69%29.92 "HgN/A
3:00 PM77 °FPassing clouds.18 mph65%29.92 "HgN/A
2:30 PM81 °FPassing clouds.13 mph58%29.92 "HgN/A
2:00 PM79 °FPassing clouds.13 mph61%29.95 "HgN/A
1:30 PM79 °FPassing clouds.14 mph61%29.95 "HgN/A
1:00 PM81 °FScattered clouds.14 mph58%29.98 "HgN/A
12:30 PM81 °FScattered clouds.12 mph54%29.98 "HgN/A
12:00 PM81 °FPassing clouds.10 mph51%30.01 "HgN/A
11:00 AM81 °FPassing clouds.10 mph51%30.04 "HgN/A
10:30 AM79 °FPassing clouds.10 mph54%30.04 "HgN/A
10:00 AM77 °FPassing clouds.12 mph57%30.04 "HgN/A
9:30 AM77 °FPassing clouds.10 mph57%30.04 "HgN/A
9:00 AM75 °FPassing clouds.9 mph65%30.04 "HgN/A
8:30 AM73 °FPassing clouds.9 mph69%30.04 "HgN/A
8:00 AM72 °FPassing clouds.1 mph78%30.04 "HgN/A
7:30 AM68 °FPassing clouds.2 mph88%30.04 "HgN/A
7:00 AM66 °FPassing clouds.No wind88%30.04 "HgN/A
6:30 AM66 °FPassing clouds.6 mph88%30.04 "HgN/A
6:00 AM64 °FPassing clouds.6 mph88%30.01 "HgN/A
5:30 AM66 °FClear.6 mph88%30.01 "HgN/A
5:00 AM66 °FClear.7 mph88%30.01 "HgN/A
4:30 AM66 °FClear.7 mph88%29.98 "HgN/A
4:00 AM66 °FClear.7 mph88%29.98 "HgN/A
3:30 AM68 °FClear.9 mph83%29.98 "HgN/A
3:00 AM68 °FClear.8 mph83%29.98 "HgN/A
2:30 AM68 °FClear.8 mph83%29.98 "HgN/A
2:00 AM68 °FClear.9 mph88%29.98 "HgN/A
1:30 AM68 °FClear.7 mph88%30.01 "HgN/A
1:00 AM70 °FPassing clouds.8 mph83%30.01 "HgN/A
12:00 AM70 °FClear.5 mph83%30.01 "HgN/A
11:30 PM
Sep 15
72 °FPassing clouds.6 mph78%30.01 "HgN/A
11:00 PM72 °FPassing clouds.9 mph78%30.01 "HgN/A
Weather by CustomWeather, © 2014

See weather overviewHow to use our weather pages